EN

Hourly Weather Tokarevka

Today, 11 April, Sunday

Time Temperature Precipitation Wind Pressure Humidity
00:00 0°C° 0 mm 4 mps 749 mmHg 95%
01:00 0°C° 0 mm 4 mps 749 mmHg 95%
02:00 0°C° 0 mm 4 mps 749 mmHg 96%
03:00 0°C° 0 mm 4 mps 750 mmHg 96%
04:00 0°C° 0 mm 4 mps 750 mmHg 96%
05:00 0°C° 0 mm 4 mps 750 mmHg 96%
06:00 0°C° 0 mm 5 mps 751 mmHg 96%
07:00 +1°C° 0 mm 5 mps 751 mmHg 93%
08:00 +2°C° 0 mm 6 mps 751 mmHg 90%
09:00 +3°C° 0 mm 7 mps 751 mmHg 87%
10:00 +4°C° 0.2 mm 6 mps 751 mmHg 84%
11:00 +5°C° 0.2 mm 6 mps 751 mmHg 82%
12:00 +7°C° 0.2 mm 6 mps 751 mmHg 80%
13:00 +7°C° 0.5 mm 6 mps 751 mmHg 83%
14:00 +5°C° 0.5 mm 6 mps 751 mmHg 85%
15:00 +5°C° 0.5 mm 6 mps 752 mmHg 88%
16:00 +5°C° 0.1 mm 6 mps 752 mmHg 88%
17:00 +5°C° 0.1 mm 6 mps 752 mmHg 89%
18:00 +4°C° 0.1 mm 6 mps 752 mmHg 90%
19:00 +4°C° 0 mm 6 mps 752 mmHg 91%
20:00 +5°C° 0 mm 5 mps 752 mmHg 93%
21:00 +3°C° 0 mm 5 mps 752 mmHg 94%
22:00 +3°C° 0 mm 5 mps 752 mmHg 94%
23:00 +4°C° 0 mm 4 mps 752 mmHg 94%

Tomorrow, 12 April, Monday

Time Temperature Precipitation Wind Pressure Humidity
00:00 +4°C° 0 mm 4 mps 752 mmHg 94%
01:00 +4°C° 0 mm 4 mps 752 mmHg 94%
02:00 +4°C° 0 mm 4 mps 752 mmHg 94%
03:00 +4°C° 0 mm 4 mps 752 mmHg 94%
04:00 +4°C° 0 mm 4 mps 752 mmHg 94%
05:00 +4°C° 0 mm 4 mps 752 mmHg 94%
06:00 +4°C° 0 mm 4 mps 752 mmHg 94%
07:00 +7°C° 0 mm 4 mps 752 mmHg 87%
08:00 +10°C° 0 mm 4 mps 752 mmHg 80%
09:00 +12°C° 0 mm 4 mps 752 mmHg 73%
10:00 +14°C° 0 mm 4 mps 752 mmHg 64%
11:00 +16°C° 0 mm 5 mps 752 mmHg 55%
12:00 +20°C° 0 mm 5 mps 752 mmHg 46%
13:00 +20°C° 0 mm 5 mps 752 mmHg 42%
14:00 +21°C° 0 mm 6 mps 752 mmHg 38%
15:00 +22°C° 0 mm 6 mps 752 mmHg 34%
16:00 +21°C° 0 mm 5 mps 752 mmHg 39%
17:00 +19°C° 0 mm 5 mps 752 mmHg 45%
18:00 +18°C° 0 mm 4 mps 752 mmHg 50%
19:00 +15°C° 0 mm 4 mps 752 mmHg 55%
20:00 +14°C° 0 mm 4 mps 752 mmHg 60%
21:00 +12°C° 0 mm 4 mps 752 mmHg 65%
22:00 +12°C° 0 mm 4 mps 752 mmHg 69%
23:00 +11°C° 0 mm 4 mps 752 mmHg 73%

Day after tomorrow, 13 April, Tuesday

Time Temperature Precipitation Wind Pressure Humidity
00:00 +10°C° 0 mm 4 mps 752 mmHg 76%
01:00 +10°C° 0 mm 4 mps 752 mmHg 76%
02:00 +8°C° 0 mm 4 mps 752 mmHg 77%
03:00 +8°C° 0 mm 4 mps 752 mmHg 77%
04:00 +7°C° 0 mm 4 mps 752 mmHg 76%
05:00 +7°C° 0 mm 4 mps 752 mmHg 75%
06:00 +6°C° 0 mm 4 mps 752 mmHg 74%
07:00 +8°C° 0 mm 4 mps 752 mmHg 66%
08:00 +10°C° 0 mm 5 mps 752 mmHg 59%
09:00 +13°C° 0 mm 5 mps 752 mmHg 52%
10:00 +15°C° 0 mm 6 mps 752 mmHg 46%
11:00 +16°C° 0 mm 6 mps 752 mmHg 41%
12:00 +19°C° 0 mm 6 mps 751 mmHg 36%
13:00 +20°C° 0 mm 6 mps 751 mmHg 34%
14:00 +20°C° 0 mm 6 mps 751 mmHg 33%
15:00 +21°C° 0 mm 6 mps 751 mmHg 31%
16:00 +20°C° 0 mm 5 mps 750 mmHg 36%
17:00 +17°C° 0 mm 5 mps 750 mmHg 40%
18:00 +17°C° 0 mm 4 mps 750 mmHg 45%
19:00 +15°C° 0 mm 4 mps 750 mmHg 49%
20:00 +13°C° 0 mm 4 mps 750 mmHg 54%
21:00 +12°C° 0 mm 4 mps 750 mmHg 59%
22:00 +11°C° 0 mm 4 mps 750 mmHg 60%
23:00 +11°C° 0 mm 4 mps 750 mmHg 61%

14 April, Wednesday

Time Temperature Precipitation Wind Pressure Humidity
00:00 +10°C° 0 mm 4 mps 750 mmHg 62%
01:00 +10°C° 0 mm 4 mps 750 mmHg 63%
02:00 +8°C° 0 mm 4 mps 750 mmHg 64%
03:00 +8°C° 0 mm 4 mps 750 mmHg 65%
04:00 +9°C° 0 mm 3 mps 749 mmHg 66%
05:00 +8°C° 0 mm 3 mps 749 mmHg 67%
06:00 +8°C° 0 mm 3 mps 749 mmHg 68%
07:00 +10°C° 0 mm 4 mps 749 mmHg 61%
08:00 +12°C° 0 mm 4 mps 749 mmHg 54%
09:00 +14°C° 0 mm 5 mps 749 mmHg 47%
10:00 +16°C° 0 mm 5 mps 749 mmHg 42%
11:00 +17°C° 0 mm 5 mps 749 mmHg 36%
12:00 +20°C° 0 mm 5 mps 749 mmHg 31%
13:00 +20°C° 0 mm 5 mps 748 mmHg 30%
14:00 +20°C° 0 mm 5 mps 748 mmHg 28%
15:00 +21°C° 0 mm 4 mps 748 mmHg 27%
16:00 +20°C° 0 mm 4 mps 747 mmHg 32%
17:00 +19°C° 0 mm 3 mps 747 mmHg 38%
18:00 +18°C° 0 mm 3 mps 747 mmHg 43%
19:00 +16°C° 0 mm 3 mps 747 mmHg 48%
20:00 +14°C° 0 mm 3 mps 747 mmHg 53%
21:00 +12°C° 0 mm 3 mps 747 mmHg 57%
22:00 +12°C° 0 mm 3 mps 747 mmHg 58%
23:00 +11°C° 0 mm 3 mps 746 mmHg 60%

15 April, Thursday

Time Temperature Precipitation Wind Pressure Humidity
00:00 +11°C° 0 mm 3 mps 746 mmHg 61%
01:00 +10°C° 0 mm 3 mps 746 mmHg 62%
02:00 +10°C° 0 mm 2 mps 746 mmHg 64%
03:00 +9°C° 0 mm 2 mps 746 mmHg 66%
04:00 +9°C° 0 mm 2 mps 746 mmHg 67%
05:00 +9°C° 0 mm 2 mps 746 mmHg 67%
06:00 +9°C° 0 mm 2 mps 745 mmHg 68%
07:00 +10°C° 0 mm 2 mps 745 mmHg 62%
08:00 +13°C° 0 mm 2 mps 745 mmHg 57%
09:00 +15°C° 0 mm 2 mps 745 mmHg 51%
10:00 +17°C° 0 mm 3 mps 745 mmHg 46%
11:00 +18°C° 0 mm 3 mps 745 mmHg 41%
12:00 +20°C° 0 mm 3 mps 744 mmHg 37%
13:00 +20°C° 0 mm 3 mps 744 mmHg 35%
14:00 +20°C° 0 mm 3 mps 743 mmHg 33%
15:00 +21°C° 0 mm 3 mps 743 mmHg 30%
16:00 +20°C° 0 mm 2 mps 743 mmHg 35%
17:00 +19°C° 0 mm 2 mps 742 mmHg 39%
18:00 +19°C° 0 mm 1 mps 742 mmHg 43%
19:00 +18°C° 0 mm 1 mps 742 mmHg 46%
20:00 +16°C° 0 mm 1 mps 741 mmHg 48%
21:00 +15°C° 0 mm 2 mps 741 mmHg 51%
22:00 +14°C° 0 mm 2 mps 740 mmHg 54%
23:00 +14°C° 0 mm 2 mps 740 mmHg 57%

16 April, Friday

Time Temperature Precipitation Wind Pressure Humidity
00:00 +13°C° 0 mm 2 mps 740 mmHg 60%
01:00 +13°C° 0 mm 2 mps 739 mmHg 64%
02:00 +12°C° 0 mm 2 mps 739 mmHg 68%
03:00 +12°C° 0 mm 2 mps 738 mmHg 71%
04:00 +10°C° 0 mm 2 mps 738 mmHg 77%
05:00 +9°C° 0 mm 3 mps 738 mmHg 83%
06:00 +7°C° 0 mm 4 mps 737 mmHg 90%
07:00 +8°C° 0 mm 4 mps 737 mmHg 87%
08:00 +8°C° 0 mm 4 mps 737 mmHg 84%
09:00 +10°C° 0 mm 4 mps 737 mmHg 81%
10:00 +10°C° 0 mm 4 mps 737 mmHg 79%
11:00 +10°C° 0 mm 4 mps 737 mmHg 78%
12:00 +10°C° 0 mm 4 mps 737 mmHg 76%
13:00 +8°C° 0 mm 5 mps 737 mmHg 78%
14:00 +7°C° 0 mm 5 mps 738 mmHg 80%
15:00 +5°C° 0 mm 6 mps 738 mmHg 82%
16:00 +4°C° 0 mm 6 mps 738 mmHg 85%
17:00 +3°C° 0 mm 7 mps 738 mmHg 89%
18:00 0°C° 0 mm 7 mps 739 mmHg 92%
19:00 0°C° 0 mm 7 mps 739 mmHg 93%
20:00 0°C° 0 mm 7 mps 739 mmHg 93%
21:00 -1°C° 0 mm 7 mps 739 mmHg 93%
22:00 -1°C° 0 mm 8 mps 738 mmHg 93%
23:00 -1°C° 0 mm 8 mps 738 mmHg 93%
Show more

We Need Your Consent

Meteoprog and our Service Providers may store and access personal data such as cookies, device identifiers or other similar technologies on your device and process such data to personalise content and ads, as well as provide social media features and to analyse the traffic.

  • Store and/or access information on your device

    Cookies, device identifiers or other information can be stored or accessed on your device for the purposes indicated above.

  • Personalised ads and content, ad and content measurement, audience insights, and products development

    Ads and content can be personalised based on a profile. More data can be added to better personalise ads and content. Ad and content performance can be measured. Insights about the audience who saw the ads and content can be derived. Such data can be used to develop or improve user’s experience, systems and software.

By clicking ‘I Agree’ you will allow the use of indicated cookies, device identifiers, web beacons or other similar technologies. Your settings can be changed in the browser on your device.

For certain purposes, legitimate interests may be relied on, rather than consent. You can read more about this in our Privacy and Cookie Policy.